| time (UTC) | temp F | wind direction | speed MPH | gust MPH | rain 1hr in | rain 24hr in | rain mn in | humidity % | barometer mb |
| 20260510041037 | 67 | 217 | 15.0 | 17.0 | 0.00 | 0.00 | 0.00 | 26 | |
| 20260510040539 | 67 | 217 | 16.0 | 18.0 | 0.00 | 0.00 | 0.00 | 23 | |
| 20260510040041 | 67 | 210 | 16.0 | 16.0 | 0.00 | 0.00 | 0.00 | 23 | |
| 20260510035543 | 67 | 214 | 15.0 | 17.0 | 0.00 | 0.00 | 0.00 | 23 | |
| 20260510035042 | 68 | 231 | 15.0 | 22.0 | 0.00 | 0.00 | 0.00 | 21 | |
| 20260510034545 | 68 | 222 | 15.0 | 15.0 | 0.00 | 0.00 | 0.00 | 21 | |
| 20260510034047 | 68 | 221 | 17.0 | 13.0 | 0.00 | 0.00 | 0.00 | 21 | |
| 20260510033549 | 68 | 215 | 14.0 | 11.0 | 0.00 | 0.00 | 0.00 | 21 | |
| 20260510033052 | 68 | 214 | 16.0 | 17.0 | 0.00 | 0.00 | 0.00 | 20 | |
| 20260510032554 | 68 | 222 | 15.0 | 16.0 | 0.00 | 0.00 | 0.00 | 19 | |
| 20260510032054 | 68 | 211 | 15.0 | 13.0 | 0.00 | 0.00 | 0.00 | 19 | |
| 20260510031555 | 69 | 218 | 14.0 | 14.0 | 0.00 | 0.00 | 0.00 | 19 | |
| 20260510030600 | 69 | 210 | 13.0 | 16.0 | 0.00 | 0.00 | 0.00 | 16 | |
| 20260510025604 | 69 | 212 | 14.0 | 13.0 | 0.00 | 0.00 | 0.00 | 16 | |
| 20260510025103 | 69 | 219 | 14.0 | 10.0 | 0.00 | 0.00 | 0.00 | 15 | |
| 20260510024605 | 70 | 229 | 14.0 | 10.0 | 0.00 | 0.00 | 0.00 | 14 | |
| 20260510024108 | 70 | 224 | 13.0 | 8.0 | 0.00 | 0.00 | 0.00 | 14 | |
| 20260510023610 | 70 | 205 | 16.0 | 9.0 | 0.00 | 0.00 | 0.00 | 15 | |
| 20260510023112 | 70 | 204 | 16.0 | 16.0 | 0.00 | 0.00 | 0.00 | 14 | |
| 20260510022614 | 71 | 212 | 16.0 | 15.0 | 0.00 | 0.00 | 0.00 | 16 | |
| 20260510022113 | 71 | 222 | 12.0 | 14.0 | 0.00 | 0.00 | 0.00 | 18 | |
| 20260510021616 | 72 | 218 | 16.0 | 20.0 | 0.00 | 0.00 | 0.00 | 21 | |
| 20260510021118 | 73 | 232 | 15.0 | 14.0 | 0.00 | 0.00 | 0.00 | 20 | |
| 20260510020620 | 73 | 214 | 13.0 | 17.0 | 0.00 | 0.00 | 0.00 | 18 | |
| 20260510020122 | 74 | 228 | 10.0 | 8.0 | 0.00 | 0.00 | 0.00 | 17 | |
| 20260510015626 | 74 | 207 | 15.0 | 15.0 | 0.00 | 0.00 | 0.00 | 16 | |
| 20260510015125 | 75 | 226 | 11.0 | 7.0 | 0.00 | 0.00 | 0.00 | 15 | |
| 20260510014627 | 75 | 217 | 14.0 | 14.0 | 0.00 | 0.00 | 0.00 | 14 | |
| 20260510014128 | 76 | 217 | 14.0 | 9.0 | 0.00 | 0.00 | 0.00 | 12 | |
| 20260510013631 | 76 | 226 | 12.0 | 18.0 | 0.00 | 0.00 | 0.00 | 11 | |
| 20260510013133 | 76 | 219 | 13.0 | 11.0 | 0.00 | 0.00 | 0.00 | 10 | |
| 20260510012636 | 76 | 191 | 12.0 | 12.0 | 0.00 | 0.00 | 0.00 | 9 | |
| 20260510012134 | 77 | 219 | 14.0 | 24.0 | 0.00 | 0.00 | 0.00 | 8 | |
| 20260510011636 | 77 | 197 | 13.0 | 10.0 | 0.00 | 0.00 | 0.00 | 7 | |
| 20260510011139 | 77 | 222 | 14.0 | 9.0 | 0.00 | 0.00 | 0.00 | 7 | |
| 20260510010641 | 78 | 159 | 14.0 | 13.0 | 0.00 | 0.00 | 0.00 | 7 | |
| 20260510010143 | 78 | 219 | 14.0 | 13.0 | 0.00 | 0.00 | 0.00 | 6 | |
| 20260510005645 | 79 | 218 | 14.0 | 21.0 | 0.00 | 0.00 | 0.00 | 6 | |
| 20260510005144 | 79 | 200 | 16.0 | 17.0 | 0.00 | 0.00 | 0.00 | 6 | |
| 20260510004647 | 79 | 208 | 14.0 | 14.0 | 0.00 | 0.00 | 0.00 | 6 | |
| 20260510003651 | 80 | 219 | 16.0 | 9.0 | 0.00 | 0.00 | 0.00 | 6 | |
| 20260510003153 | 80 | 222 | 16.0 | 13.0 | 0.00 | 0.00 | 0.00 | 6 | |
| 20260510002655 | 80 | 221 | 11.0 | 16.0 | 0.00 | 0.00 | 0.00 | 5 | |
| 20260510002156 | 81 | 212 | 14.0 | 15.0 | 0.00 | 0.00 | 0.00 | 5 | |
| 20260510001657 | 81 | 232 | 16.0 | 17.0 | 0.00 | 0.00 | 0.00 | 5 | |
| 20260510001159 | 81 | 212 | 13.0 | 15.0 | 0.00 | 0.00 | 0.00 | 5 | |
| 20260510000701 | 82 | 226 | 13.0 | 16.0 | 0.00 | 0.00 | 0.00 | 5 | |
| 20260510000204 | 82 | 226 | 10.0 | 15.0 | 0.00 | 0.00 | 0.00 | 4 | |
| 20260509235706 | 82 | 224 | 14.0 | 13.0 | 0.00 | 0.00 | 0.00 | 4 | |
| 20260509235205 | 83 | 210 | 11.0 | 13.0 | 0.00 | 0.00 | 0.00 | 4 | |
| 20260509234707 | 83 | 204 | 9.0 | 19.0 | 0.00 | 0.00 | 0.00 | 4 | |
| 20260509234209 | 83 | 219 | 12.0 | 12.0 | 0.00 | 0.00 | 0.00 | 4 | |
| 20260509233712 | 83 | 238 | 9.0 | 15.0 | 0.00 | 0.00 | 0.00 | 4 | |
| 20260509233214 | 84 | 204 | 9.0 | 12.0 | 0.00 | 0.00 | 0.00 | 3 | |
| 20260509232716 | 84 | 219 | 10.0 | 12.0 | 0.00 | 0.00 | 0.00 | 4 | |
| 20260509232215 | 84 | 222 | 13.0 | 10.0 | 0.00 | 0.00 | 0.00 | 4 | |
| 20260509231718 | 84 | 226 | 11.0 | 13.0 | 0.00 | 0.00 | 0.00 | 4 | |
| 20260509231219 | 85 | 232 | 12.0 | 12.0 | 0.00 | 0.00 | 0.00 | 4 | |
| 20260509230722 | 85 | 228 | 13.0 | 18.0 | 0.00 | 0.00 | 0.00 | 3 | |
| 20260509225727 | 85 | 229 | 13.0 | 16.0 | 0.00 | 0.00 | 0.00 | 4 | |
| 20260509225225 | 85 | 232 | 11.0 | 13.0 | 0.00 | 0.00 | 0.00 | 4 | |
| 20260509224728 | 86 | 207 | 12.0 | 10.0 | 0.00 | 0.00 | 0.00 | 4 | |
| 20260509224230 | 86 | 201 | 10.0 | 7.0 | 0.00 | 0.00 | 0.00 | 4 | |
| 20260509223732 | 86 | 197 | 9.0 | 9.0 | 0.00 | 0.00 | 0.00 | 4 | |
| 20260509223234 | 86 | 221 | 7.0 | 8.0 | 0.00 | 0.00 | 0.00 | 3 | |
| 20260509222737 | 86 | 197 | 9.0 | 9.0 | 0.00 | 0.00 | 0.00 | 3 | |
| 20260509222237 | 86 | 232 | 13.0 | 14.0 | 0.00 | 0.00 | 0.00 | 4 | |
| 20260509221738 | 86 | 219 | 14.0 | 14.0 | 0.00 | 0.00 | 0.00 | 4 | |
| 20260509220745 | 86 | 205 | 11.0 | 9.0 | 0.00 | 0.00 | 0.00 | 4 | |
| 20260509220245 | 86 | 257 | 8.0 | 3.0 | 0.00 | 0.00 | 0.00 | 4 | |
| 20260509215747 | 86 | 228 | 11.0 | 9.0 | 0.00 | 0.00 | 0.00 | 4 | |
| 20260509215246 | 85 | 236 | 13.0 | 16.0 | 0.00 | 0.00 | 0.00 | 4 | |
| 20260509214250 | 85 | 232 | 13.0 | 11.0 | 0.00 | 0.00 | 0.00 | 4 | |
| 20260509213753 | 85 | 238 | 14.0 | 11.0 | 0.00 | 0.00 | 0.00 | 4 | |
| 20260509213255 | 85 | 233 | 12.0 | 18.0 | 0.00 | 0.00 | 0.00 | 4 | |
| 20260509212757 | 85 | 208 | 15.0 | 7.0 | 0.00 | 0.00 | 0.00 | 4 | |
| 20260509212256 | 85 | 214 | 17.0 | 11.0 | 0.00 | 0.00 | 0.00 | 4 | |
| 20260509211758 | 85 | 211 | 14.0 | 7.0 | 0.00 | 0.00 | 0.00 | 4 | |
| 20260509211301 | 85 | 194 | 11.0 | 11.0 | 0.00 | 0.00 | 0.00 | 4 | |
| 20260509210803 | 85 | 224 | 14.0 | 13.0 | 0.00 | 0.00 | 0.00 | 4 | |
| 20260509210305 | 85 | 235 | 14.0 | 18.0 | 0.00 | 0.00 | 0.00 | 4 | |
| 20260509205808 | 85 | 210 | 13.0 | 13.0 | 0.00 | 0.00 | 0.00 | 4 | |
| 20260509205307 | 85 | 205 | 14.0 | 13.0 | 0.00 | 0.00 | 0.00 | 4 | |
| 20260509204809 | 85 | 228 | 14.0 | 7.0 | 0.00 | 0.00 | 0.00 | 4 | |
| 20260509204311 | 85 | 239 | 13.0 | 6.0 | 0.00 | 0.00 | 0.00 | 4 | |
| 20260509203813 | 85 | 195 | 12.0 | 10.0 | 0.00 | 0.00 | 0.00 | 4 | |
| 20260509203316 | 85 | 243 | 10.0 | 5.0 | 0.00 | 0.00 | 0.00 | 4 | |
| 20260509202818 | 84 | 235 | 13.0 | 10.0 | 0.00 | 0.00 | 0.00 | 4 | |
| 20260509202317 | 84 | 240 | 14.0 | 12.0 | 0.00 | 0.00 | 0.00 | 4 | |
| 20260509201819 | 84 | 225 | 10.0 | 15.0 | 0.00 | 0.00 | 0.00 | 4 | |
| 20260509201322 | 84 | 221 | 8.0 | 10.0 | 0.00 | 0.00 | 0.00 | 5 | |
| 20260509200824 | 85 | 229 | 11.0 | 13.0 | 0.00 | 0.00 | 0.00 | 5 | |
| 20260509200326 | 85 | 242 | 12.0 | 10.0 | 0.00 | 0.00 | 0.00 | 5 | |
| 20260509195828 | 85 | 214 | 12.0 | 12.0 | 0.00 | 0.00 | 0.00 | 5 | |
| 20260509195327 | 86 | 212 | 8.0 | 12.0 | 0.00 | 0.00 | 0.00 | 4 | |
| 20260509194830 | 86 | 238 | 11.0 | 14.0 | 0.00 | 0.00 | 0.00 | 4 | |
| 20260509194332 | 86 | 184 | 11.0 | 11.0 | 0.00 | 0.00 | 0.00 | 4 | |
| 20260509193835 | 86 | 221 | 8.0 | 13.0 | 0.00 | 0.00 | 0.00 | 4 | |
| 20260509193337 | 86 | 225 | 12.0 | 14.0 | 0.00 | 0.00 | 0.00 | 4 | |
| 20260509192839 | 86 | 218 | 10.0 | 11.0 | 0.00 | 0.00 | 0.00 | 5 | |
| 20260509192828 | 86 | 232 | 8.0 | 11.0 | 0.00 | 0.00 | 0.00 | 4 | |
| 20260509192338 | 86 | 232 | 8.0 | 11.0 | 0.00 | 0.00 | 0.00 | 4 | |
| 20260509191840 | 86 | 256 | 8.0 | 4.0 | 0.00 | 0.00 | 0.00 | 4 | |
| 20260509191342 | 86 | 229 | 11.0 | 13.0 | 0.00 | 0.00 | 0.00 | 5 | |
| 20260509190845 | 85 | 231 | 6.0 | 5.0 | 0.00 | 0.00 | 0.00 | 5 | |
| 20260509190347 | 86 | 239 | 8.0 | 7.0 | 0.00 | 0.00 | 0.00 | 5 | |
| 20260509185849 | 86 | 245 | 7.0 | 3.0 | 0.00 | 0.00 | 0.00 | 5 | |
| 20260509185348 | 86 | 211 | 8.0 | 9.0 | 0.00 | 0.00 | 0.00 | 4 | |
| 20260509184851 | 86 | 224 | 7.0 | 10.0 | 0.00 | 0.00 | 0.00 | 5 | |
| 20260509184353 | 86 | 226 | 9.0 | 8.0 | 0.00 | 0.00 | 0.00 | 5 | |
| 20260509183856 | 86 | 228 | 3.0 | 7.0 | 0.00 | 0.00 | 0.00 | 4 | |
| 20260509182900 | 86 | 224 | 5.0 | 8.0 | 0.00 | 0.00 | 0.00 | 4 | |
| 20260509182359 | 86 | 273 | 2.0 | 0.0 | 0.00 | 0.00 | 0.00 | 3 | |
| 20260509181902 | 86 | 69 | 2.0 | 4.0 | 0.00 | 0.00 | 0.00 | 3 | |
| 20260509181404 | 85 | 44 | 0.0 | 0.0 | 0.00 | 0.00 | 0.00 | 3 | |
| 20260509180906 | 85 | 44 | 0.0 | 0.0 | 0.00 | 0.00 | 0.00 | 3 | |
| 20260509180409 | 84 | 250 | 1.0 | 0.0 | 0.00 | 0.00 | 0.00 | 3 | |
| 20260509175911 | 84 | 262 | 0.0 | 0.0 | 0.00 | 0.00 | 0.00 | 3 | |
| 20260509175410 | 84 | 304 | 3.0 | 3.0 | 0.00 | 0.00 | 0.00 | 3 | |
| 20260509174912 | 83 | 6 | 0.0 | 0.0 | 0.00 | 0.00 | 0.00 | 3 | |
| 20260509174414 | 83 | 340 | 2.0 | 3.0 | 0.00 | 0.00 | 0.00 | 3 | |
| 20260509173917 | 83 | 349 | 3.0 | 0.0 | 0.00 | 0.00 | 0.00 | 3 | |
| 20260509172921 | 82 | 162 | 0.0 | 0.0 | 0.00 | 0.00 | 0.00 | 4 | |
| 20260509172420 | 82 | 162 | 0.0 | 0.0 | 0.00 | 0.00 | 0.00 | 4 | |
| 20260509171425 | 81 | 225 | 1.0 | 0.0 | 0.00 | 0.00 | 0.00 | 4 | |
| 20260509170927 | 80 | 233 | 0.0 | 0.0 | 0.00 | 0.00 | 0.00 | 4 | |
| 20260509170430 | 80 | 321 | 0.0 | 0.0 | 0.00 | 0.00 | 0.00 | 4 | |
| 20260509165932 | 79 | 321 | 2.0 | 0.0 | 0.00 | 0.00 | 0.00 | 4 | |
| 20260509165431 | 79 | 18 | 0.0 | 5.0 | 0.00 | 0.00 | 0.00 | 5 | |
| 20260509164933 | 79 | 328 | 3.0 | 2.0 | 0.00 | 0.00 | 0.00 | 4 | |
| 20260509164436 | 79 | 14 | 0.0 | 0.0 | 0.00 | 0.00 | 0.00 | 5 | |
| 20260509163441 | 78 | 44 | 0.0 | 0.0 | 0.00 | 0.00 | 0.00 | 5 | |
| 20260509162943 | 78 | 17 | 2.0 | 3.0 | 0.00 | 0.00 | 0.00 | 5 | |
| 20260509162442 | 77 | 305 | 0.0 | 0.0 | 0.00 | 0.00 | 0.00 | 5 | |
| 20260509161944 | 77 | 305 | 3.0 | 3.0 | 0.00 | 0.00 | 0.00 | 5 | |
| 20260509161446 | 76 | 44 | 0.0 | 0.0 | 0.00 | 0.00 | 0.00 | 5 | |
| 20260509160949 | 76 | 8 | 0.0 | 0.0 | 0.00 | 0.00 | 0.00 | 5 | |
| 20260509160451 | 75 | 7 | 2.0 | 5.0 | 0.00 | 0.00 | 0.00 | 6 | |
| 20260509155956 | 75 | 48 | 0.0 | 0.0 | 0.00 | 0.00 | 0.00 | 6 | |
| 20260509155453 | 74 | 48 | 0.0 | 0.0 | 0.00 | 0.00 | 0.00 | 6 | |
| 20260509154955 | 74 | 48 | 0.0 | 0.0 | 0.00 | 0.00 | 0.00 | 6 | |
| 20260509154457 | 73 | 48 | 0.0 | 0.0 | 0.00 | 0.00 | 0.00 | 6 | |
| 20260509154000 | 73 | 48 | 0.0 | 0.0 | 0.00 | 0.00 | 0.00 | 7 | |
| 20260509153502 | 72 | 25 | 1.0 | 2.0 | 0.00 | 0.00 | 0.00 | 8 | |
| 20260509153004 | 72 | 11 | 0.0 | 0.0 | 0.00 | 0.00 | 0.00 | 9 | |
| 20260509152503 | 71 | 11 | 1.0 | 0.0 | 0.00 | 0.00 | 0.00 | 10 | |
| 20260509152006 | 71 | 72 | 0.0 | 0.0 | 0.00 | 0.00 | 0.00 | 10 | |
| 20260509151508 | 70 | 32 | 0.0 | 0.0 | 0.00 | 0.00 | 0.00 | 10 | |
| 20260509151010 | 70 | 32 | 1.0 | 0.0 | 0.00 | 0.00 | 0.00 | 12 | |
| 20260509150513 | 69 | 46 | 0.0 | 0.0 | 0.00 | 0.00 | 0.00 | 13 | |
| 20260509150015 | 69 | 46 | 0.0 | 0.0 | 0.00 | 0.00 | 0.00 | 13 | |
| 20260509145515 | 68 | 58 | 0.0 | 5.0 | 0.00 | 0.00 | 0.00 | 15 | |
| 20260509144519 | 67 | 212 | 0.0 | 0.0 | 0.00 | 0.00 | 0.00 | 18 | |
| 20260509144021 | 66 | 212 | 0.0 | 0.0 | 0.00 | 0.00 | 0.00 | 23 | |
| 20260509143523 | 65 | 212 | 0.0 | 0.0 | 0.00 | 0.00 | 0.00 | 25 | |
| 20260509143026 | 64 | 212 | 0.0 | 0.0 | 0.00 | 0.00 | 0.00 | 27 | |
| 20260509142525 | 63 | 212 | 0.0 | 0.0 | 0.00 | 0.00 | 0.00 | 31 | |
| 20260509141529 | 61 | 212 | 0.0 | 0.0 | 0.00 | 0.00 | 0.00 | 35 | |
| 20260509140534 | 59 | 212 | 0.0 | 0.0 | 0.00 | 0.00 | 0.00 | 36 | |
| 20260509140036 | 58 | 222 | 3.0 | 3.0 | 0.00 | 0.00 | 0.00 | 36 | |
| 20260509135535 | 57 | 232 | 3.0 | 3.0 | 0.00 | 0.00 | 0.00 | 36 | |
| 20260509135038 | 57 | 232 | 5.0 | 4.0 | 0.00 | 0.00 | 0.00 | 38 | |
| 20260509134540 | 56 | 229 | 5.0 | 5.0 | 0.00 | 0.00 | 0.00 | 39 | |
| 20260509134042 | 55 | 217 | 5.0 | 6.0 | 0.00 | 0.00 | 0.00 | 38 | |
| 20260509133545 | 54 | 221 | 6.0 | 5.0 | 0.00 | 0.00 | 0.00 | 40 | |
| 20260509133047 | 54 | 224 | 6.0 | 6.0 | 0.00 | 0.00 | 0.00 | 39 | |
| 20260509132546 | 53 | 231 | 6.0 | 6.0 | 0.00 | 0.00 | 0.00 | 39 | |
| 20260509132048 | 53 | 201 | 6.0 | 5.0 | 0.00 | 0.00 | 0.00 | 40 | |
| 20260509131552 | 53 | 224 | 7.0 | 6.0 | 0.00 | 0.00 | 0.00 | 40 | |
| 20260509131053 | 53 | 221 | 6.0 | 7.0 | 0.00 | 0.00 | 0.00 | 39 | |
| 20260509130555 | 53 | 212 | 6.0 | 7.0 | 0.00 | 0.00 | 0.00 | 38 | |
| 20260509130058 | 53 | 214 | 7.0 | 7.0 | 0.00 | 0.00 | 0.00 | 37 | |
| 20260509125557 | 53 | 226 | 6.0 | 7.0 | 0.00 | 0.00 | 0.00 | 37 | |
| 20260509125059 | 53 | 235 | 6.0 | 6.0 | 0.00 | 0.00 | 0.00 | 37 | |
| 20260509124601 | 54 | 228 | 6.0 | 6.0 | 0.00 | 0.00 | 0.00 | 37 | |
| 20260509124105 | 54 | 225 | 7.0 | 7.0 | 0.00 | 0.00 | 0.00 | 36 | |
| 20260509123607 | 54 | 218 | 6.0 | 6.0 | 0.00 | 0.00 | 0.00 | 37 | |
| 20260509123108 | 54 | 217 | 6.0 | 6.0 | 0.00 | 0.00 | 0.00 | 37 | |
| 20260509122609 | 54 | 217 | 6.0 | 5.0 | 0.00 | 0.00 | 0.00 | 37 | |
| 20260509122110 | 54 | 218 | 7.0 | 7.0 | 0.00 | 0.00 | 0.00 | 36 | |
| 20260509121612 | 55 | 219 | 6.0 | 6.0 | 0.00 | 0.00 | 0.00 | 36 | |
| 20260509121113 | 55 | 221 | 7.0 | 6.0 | 0.00 | 0.00 | 0.00 | 36 | |
| 20260509120118 | 55 | 219 | 7.0 | 6.0 | 0.00 | 0.00 | 0.00 | 37 | |
| 20260509115617 | 55 | 208 | 7.0 | 6.0 | 0.00 | 0.00 | 0.00 | 37 | |
| 20260509115119 | 55 | 215 | 6.0 | 7.0 | 0.00 | 0.00 | 0.00 | 38 | |
| 20260509114622 | 55 | 180 | 7.0 | 6.0 | 0.00 | 0.00 | 0.00 | 38 | |
| 20260509114124 | 54 | 218 | 7.0 | 7.0 | 0.00 | 0.00 | 0.00 | 39 | |
| 20260509113627 | 54 | 210 | 7.0 | 7.0 | 0.00 | 0.00 | 0.00 | 39 | |
| 20260509113129 | 54 | 214 | 7.0 | 7.0 | 0.00 | 0.00 | 0.00 | 39 | |
| 20260509112628 | 54 | 231 | 7.0 | 6.0 | 0.00 | 0.00 | 0.00 | 39 | |
| 20260509112130 | 55 | 221 | 6.0 | 6.0 | 0.00 | 0.00 | 0.00 | 39 | |
| 20260509111632 | 55 | 228 | 6.0 | 6.0 | 0.00 | 0.00 | 0.00 | 39 | |
| 20260509111135 | 55 | 200 | 7.0 | 7.0 | 0.00 | 0.00 | 0.00 | 39 | |
| 20260509110139 | 56 | 218 | 5.0 | 6.0 | 0.00 | 0.00 | 0.00 | 38 | |
| 20260509105639 | 56 | 232 | 6.0 | 6.0 | 0.00 | 0.00 | 0.00 | 38 | |
| 20260509105141 | 56 | 212 | 6.0 | 7.0 | 0.00 | 0.00 | 0.00 | 38 | |
| 20260509104643 | 57 | 233 | 7.0 | 7.0 | 0.00 | 0.00 | 0.00 | 38 | |
| 20260509104145 | 57 | 219 | 6.0 | 6.0 | 0.00 | 0.00 | 0.00 | 37 | |
| 20260509103648 | 57 | 224 | 7.0 | 9.0 | 0.00 | 0.00 | 0.00 | 38 | |
| 20260509103150 | 57 | 232 | 6.0 | 7.0 | 0.00 | 0.00 | 0.00 | 38 | |
| 20260509102649 | 57 | 219 | 7.0 | 5.0 | 0.00 | 0.00 | 0.00 | 37 | |
| 20260509102151 | 57 | 252 | 8.0 | 6.0 | 0.00 | 0.00 | 0.00 | 37 | |
| 20260509101654 | 57 | 198 | 7.0 | 7.0 | 0.00 | 0.00 | 0.00 | 37 | |
| 20260509101156 | 57 | 226 | 6.0 | 7.0 | 0.00 | 0.00 | 0.00 | 37 | |
| 20260509100658 | 57 | 232 | 6.0 | 6.0 | 0.00 | 0.00 | 0.00 | 38 | |
| 20260509100201 | 57 | 224 | 6.0 | 7.0 | 0.00 | 0.00 | 0.00 | 38 | |
| 20260509095700 | 57 | 207 | 5.0 | 5.0 | 0.00 | 0.00 | 0.00 | 38 | |
| 20260509094704 | 58 | 250 | 7.0 | 6.0 | 0.00 | 0.00 | 0.00 | 39 | |
| 20260509094207 | 58 | 231 | 6.0 | 8.0 | 0.00 | 0.00 | 0.00 | 39 | |
| 20260509093709 | 58 | 225 | 7.0 | 7.0 | 0.00 | 0.00 | 0.00 | 39 | |
| 20260509092711 | 58 | 236 | 7.0 | 7.0 | 0.00 | 0.00 | 0.00 | 39 | |
| 20260509091716 | 58 | 229 | 8.0 | 8.0 | 0.00 | 0.00 | 0.00 | 40 | |
| 20260509091217 | 58 | 214 | 7.0 | 6.0 | 0.00 | 0.00 | 0.00 | 40 | |
| 20260509090720 | 58 | 219 | 7.0 | 7.0 | 0.00 | 0.00 | 0.00 | 40 | |
| 20260509085721 | 58 | 224 | 6.0 | 7.0 | 0.00 | 0.00 | 0.00 | 40 | |
| 20260509085223 | 58 | 236 | 6.0 | 7.0 | 0.00 | 0.00 | 0.00 | 41 | |
| 20260509084726 | 58 | 215 | 7.0 | 8.0 | 0.00 | 0.00 | 0.00 | 40 | |
| 20260509083734 | 58 | 225 | 8.0 | 7.0 | 0.00 | 0.00 | 0.00 | 41 | |
| 20260509083730 | 58 | 225 | 8.0 | 7.0 | 0.00 | 0.00 | 0.00 | 41 | |
| 20260509083233 | 58 | 226 | 8.0 | 8.0 | 0.00 | 0.00 | 0.00 | 42 | |
| 20260509082732 | 58 | 229 | 9.0 | 7.0 | 0.00 | 0.00 | 0.00 | 43 | |
| 20260509082234 | 57 | 229 | 7.0 | 7.0 | 0.00 | 0.00 | 0.00 | 43 | |
| 20260509081737 | 57 | 235 | 7.0 | 7.0 | 0.00 | 0.00 | 0.00 | 43 | |
| 20260509081239 | 57 | 242 | 8.0 | 7.0 | 0.00 | 0.00 | 0.00 | 43 | |
| 20260509080741 | 58 | 243 | 9.0 | 6.0 | 0.00 | 0.00 | 0.00 | 43 | |
| 20260509080243 | 58 | 233 | 8.0 | 8.0 | 0.00 | 0.00 | 0.00 | 43 | |
| 20260509075743 | 58 | 245 | 8.0 | 9.0 | 0.00 | 0.00 | 0.00 | 44 | |
| 20260509075245 | 58 | 240 | 8.0 | 8.0 | 0.00 | 0.00 | 0.00 | 44 | |
| 20260509074747 | 58 | 242 | 7.0 | 8.0 | 0.00 | 0.00 | 0.00 | 44 | |
| 20260509074250 | 58 | 242 | 8.0 | 8.0 | 0.00 | 0.00 | 0.00 | 44 | |
| 20260509073752 | 59 | 255 | 8.0 | 8.0 | 0.00 | 0.00 | 0.00 | 44 | |
| 20260509073254 | 59 | 239 | 8.0 | 7.0 | 0.00 | 0.00 | 0.00 | 43 | |
| 20260509072753 | 59 | 238 | 8.0 | 8.0 | 0.00 | 0.00 | 0.00 | 42 | |
| 20260509072255 | 59 | 240 | 8.0 | 10.0 | 0.00 | 0.00 | 0.00 | 41 | |
| 20260509071758 | 59 | 246 | 9.0 | 10.0 | 0.00 | 0.00 | 0.00 | 41 | |
| 20260509071300 | 60 | 232 | 9.0 | 8.0 | 0.00 | 0.00 | 0.00 | 40 | |
| 20260509070802 | 60 | 249 | 9.0 | 8.0 | 0.00 | 0.00 | 0.00 | 40 | |
| 20260509070305 | 60 | 226 | 10.0 | 9.0 | 0.00 | 0.00 | 0.00 | 39 | |
| 20260509065804 | 60 | 229 | 10.0 | 11.0 | 0.00 | 0.00 | 0.00 | 39 | |
| 20260509065306 | 60 | 218 | 11.0 | 12.0 | 0.00 | 0.00 | 0.00 | 39 | |
| 20260509064810 | 61 | 260 | 10.0 | 8.0 | 0.00 | 0.00 | 0.00 | 38 | |
| 20260509064311 | 61 | 218 | 10.0 | 12.0 | 0.00 | 0.00 | 0.00 | 37 | |
| 20260509063813 | 61 | 235 | 8.0 | 10.0 | 0.00 | 0.00 | 0.00 | 37 | |
| 20260509063315 | 61 | 225 | 12.0 | 10.0 | 0.00 | 0.00 | 0.00 | 37 | |
| 20260509062814 | 61 | 233 | 11.0 | 8.0 | 0.00 | 0.00 | 0.00 | 38 | |
| 20260509062317 | 61 | 219 | 13.0 | 12.0 | 0.00 | 0.00 | 0.00 | 38 | |
| 20260509061819 | 61 | 233 | 10.0 | 9.0 | 0.00 | 0.00 | 0.00 | 39 | |
| 20260509061321 | 60 | 217 | 12.0 | 13.0 | 0.00 | 0.00 | 0.00 | 40 | |
| 20260509060824 | 61 | 224 | 10.0 | 11.0 | 0.00 | 0.00 | 0.00 | 40 | |
| 20260509060326 | 61 | 239 | 10.0 | 10.0 | 0.00 | 0.00 | 0.00 | 40 | |
| 20260509055825 | 61 | 218 | 10.0 | 8.0 | 0.00 | 0.00 | 0.00 | 41 | |
| 20260509055327 | 61 | 249 | 9.0 | 9.0 | 0.00 | 0.00 | 0.00 | 41 | |
| 20260509054831 | 62 | 242 | 9.0 | 9.0 | 0.00 | 0.00 | 0.00 | ||
| 20260509054332 | 62 | 215 | 8.0 | 7.0 | 0.00 | 0.00 | 0.00 | 39 | |
| 20260509053337 | 62 | 239 | 10.0 | 13.0 | 0.00 | 0.00 | 0.00 | 38 | |
| 20260509052836 | 62 | 219 | 11.0 | 12.0 | 0.00 | 0.00 | 0.00 | 38 | |
| 20260509052338 | 62 | 248 | 11.0 | 10.0 | 0.00 | 0.00 | 0.00 | 40 | |
| 20260509051840 | 61 | 217 | 12.0 | 11.0 | 0.00 | 0.00 | 0.00 | 40 | |
| 20260509051342 | 61 | 219 | 8.0 | 7.0 | 0.00 | 0.00 | 0.00 | 42 | |
| 20260509050846 | 61 | 238 | 8.0 | 10.0 | 0.00 | 0.00 | 0.00 | 42 | |
| 20260509050347 | 61 | 229 | 9.0 | 8.0 | 0.00 | 0.00 | 0.00 | 42 | |
| 20260509045846 | 61 | 240 | 8.0 | 9.0 | 0.00 | 0.00 | 0.00 | 43 | |
| 20260509045348 | 61 | 232 | 8.0 | 8.0 | 0.00 | 0.00 | 0.00 | 44 | |
| 20260509044851 | 61 | 243 | 6.0 | 10.0 | 0.00 | 0.00 | 0.00 | 44 | |
| 20260509044353 | 62 | 252 | 7.0 | 8.0 | 0.00 | 0.00 | 0.00 | 45 | |
| 20260509043855 | 62 | 207 | 7.0 | 7.0 | 0.00 | 0.00 | 0.00 | 45 | |
| 20260509043358 | 62 | 229 | 7.0 | 7.0 | 0.00 | 0.00 | 0.00 | 45 | |
| 20260509042857 | 62 | 225 | 7.0 | 8.0 | 0.00 | 0.00 | 0.00 | 45 | |
| 20260509042359 | 62 | 243 | 11.0 | 9.0 | 0.00 | 0.00 | 0.00 | 45 | |
| 20260509041901 | 62 | 240 | 10.0 | 11.0 | 0.00 | 0.00 | 0.00 | 45 | |
| 20260509041404 | 63 | 253 | 9.0 | 7.0 | 0.00 | 0.00 | 0.00 | 45 |